Location: Cahas Mountain Overlook
(37.0833°N, 80.1000°W)
Time: 19:21:53
(UTC-04:00)

Explorer 7 - Pass Details

Date: 10 February 2026
Orbit: 430 x 541 km, 50.2° (Epoch: 13 March)

Event Time Altitude Azimuth Distance (km) Brightness Sun altitude
Rises 16:14:46 0° 186° (S) 2,422 10.7 17.2°
Reaches altitude 10° 16:17:46 10° 157° (SSE) 1,580 9.4 16.7°
Maximum altitude 16:19:29 13° 128° (SE) 1,418 8.8 16.4°
Drops below altitude 10° 16:21:16 10° 99° (E) 1,621 8.8 16.1°
Sets 16:24:23 0° 71° (ENE) 2,530 9.6 15.6°
